Vineland (AU8), Ontario

1:24 PM EST on January 16, 2018 (GMT -0500)
Vineland (AU8)

Weather History for CXVN - November, 2013

Change the Weather History Date:

Saturday, November 2, 2013

  Actual Average (CYSN) Record (CYSN)
Temperature  
Mean Temperature 44 °F -  
Max Temperature 49 °F 49 °F 64 °F (2001)
Min Temperature 39 °F 38 °F 28 °F (2006)
Degree Days  
Heating Degree Days 20    
Moisture  
Dew Point 39 °F    
Average Humidity 80    
Maximum Humidity 93    
Minimum Humidity 68    
Precipitation  
Precipitation 0.16 in - - ()
Sea Level Pressure  
Sea Level Pressure 29.72 in    
Wind  
Wind Speed 7 mph ()    
Max Wind Speed 14 mph    
Max Gust Speed 21 mph    
Averages and records for this station are not official NWS values.
T = Trace of Precipitation, MM = Missing Value Source: Averaged Metar Reports

Daily Weather History Graph

Daily Weather History Graph

Search for Another Location

Airport or City:

Trip Planner

Search our weather history database for the weather conditions in past years. The results will help you decide how hot, cold, wet, or windy it might be!

Date:

Astronomy

Nov. 02, 2013 Rise Set
Actual Time 7:54 AM EDT 6:07 PM EDT
Civil Twilight 7:24 AM EDT 6:37 PM EDT
Nautical Twilight 6:50 AM EDT 7:11 PM EDT
Astronomical Twilight 6:17 AM EDT 7:44 PM EDT
Moon 6:48 AM EDT (11/2) 5:38 PM EDT (11/2)
Length of Visible Light 11h 13m
Length of Day
10h 13m
Waning Crescent, 1% of the Moon is Illuminated
Nov 2
Waning Crescent
Nov 3
New
Nov 10
First Quarter
Nov 17
Full
Nov 25
Last Quarter

Hourly Weather History & Observations

Time (EDT) Temp. Windchill Dew Point Humidity Pressure Visibility Wind Dir Wind Speed Gust Speed Precip Events Conditions
12:00 AM 49.1 °F - 41.4 °F 75% 29.61 in - SW 8.1 mph - N/A   Unknown
1:00 AM 49.1 °F - 41.7 °F 76% 29.58 in - WSW 5.8 mph - N/A   Unknown
2:00 AM 49 °F - 42 °F 70% 29.59 in - WSW 9.2 mph - -  
2:00 AM 49.1 °F - 42.3 °F 77% 29.59 in - WSW 9.2 mph - N/A   Unknown
3:00 AM 47.8 °F - 41.7 °F 79% 29.59 in - West 5.8 mph - N/A   Unknown
4:00 AM 47.5 °F - 41.4 °F 79% 29.58 in - WSW 5.8 mph - N/A   Unknown
5:00 AM 47.3 °F - 41.0 °F 79% 29.59 in - WSW 6.9 mph - N/A   Unknown
6:00 AM 46.8 °F - 40.6 °F 79% 29.60 in - WSW 5.8 mph - N/A   Unknown
7:00 AM 46.4 °F 45.2 °F 40.8 °F 81% 29.61 in - West 3.5 mph - N/A   Unknown
8:00 AM 46 °F - 40 °F 74% 29.62 in - WSW 4.6 mph - -  
8:00 AM 45.7 °F 43.4 °F 40.5 °F 82% 29.62 in - WSW 4.6 mph - N/A   Unknown
9:00 AM 46.6 °F - 41.7 °F 83% 29.64 in - West 8.1 mph - N/A   Unknown
10:00 AM 47.3 °F - 42.8 °F 84% 29.64 in - West 5.8 mph - N/A   Unknown
11:00 AM 46.0 °F 41.9 °F 43.3 °F 90% 29.65 in - WNW 8.1 mph - N/A   Unknown
12:00 PM 45.0 °F 41.2 °F 43.0 °F 93% 29.68 in - NNW 6.9 mph - 0.02 in   Unknown
1:00 PM 44.8 °F 39.4 °F 42.4 °F 91% 29.70 in - North 10.4 mph - 0.04 in   Unknown
2:00 PM 43 °F - 41 °F 90% 29.72 in - NE 9.2 mph - -  
2:00 PM 43.2 °F 37.9 °F 41.0 °F 92% 29.72 in - NE 9.2 mph - 0.07 in   Unknown
3:00 PM 42.4 °F 35.7 °F 38.8 °F 87% 29.74 in - NE 12.7 mph - 0.03 in   Unknown
4:00 PM 42.3 °F 36.8 °F 38.1 °F 85% 29.78 in - ENE 9.2 mph - N/A   Unknown
5:00 PM 42.3 °F 35.9 °F 38.1 °F 85% 29.81 in - NE 11.5 mph - N/A   Unknown
6:00 PM 42.1 °F 36.1 °F 37.6 °F 84% 29.84 in - NE 10.4 mph - N/A   Unknown
7:00 PM 42.1 °F 35.7 °F 37.2 °F 83% 29.88 in - NE 11.5 mph - N/A   Unknown
8:00 PM 42 °F - 35 °F 69% 29.92 in - NE 13.8 mph - -  
8:00 PM 41.7 °F 34.4 °F 35.2 °F 78% 29.92 in - NE 13.8 mph 19.6 mph N/A   Unknown
9:00 PM 41.2 °F 34.1 °F 31.6 °F 69% 29.96 in - NE 12.7 mph 19.6 mph N/A   Unknown
10:00 PM 40.8 °F 33.7 °F 31.8 °F 70% 29.99 in - NE 12.7 mph 20.7 mph N/A   Unknown
11:00 PM 39.6 °F 31.7 °F 29.7 °F 68% 30.02 in - NE 13.8 mph 19.6 mph N/A   Unknown